EW1620 Weather Reports


Display with metric or nautical units.
time (UTC)temp
F
wind
direction
speed
MPH
gust
MPH
rain 1hr
in
rain 24hr
in
rain mn
in
humidity
%
barometer
mb
20260901205054 53 227 0.0 2.0 0.00 0.01 0.00 87 1014.3
20260901204553 53 227 0.0 3.0 0.00 0.01 0.00 87 1014.2
20260901204052 53 227 0.0 3.0 0.00 0.01 0.00 87 1014.1
20260901203552 53 242 0.0 2.0 0.00 0.01 0.00 87 1014.1
20260901202550 53 242 0.0 2.0 0.00 0.01 0.00 87 1014.0
20260901202055 53 252 0.0 2.0 0.00 0.01 0.00 87 1014.0
20260901201549 53 252 0.0 2.0 0.00 0.01 0.00 87 1014.0
20260901201049 53 252 0.0 2.0 0.00 0.01 0.00 87 1013.9
20260901200549 53 252 0.0 4.0 0.00 0.01 0.00 87 1013.9
20260901200049 53 252 0.0 4.0 0.00 0.01 0.00 87 1013.9
20260901195548 53 196 0.0 3.0 0.00 0.01 0.00 87 1013.9
20260901195048 53 189 1.0 3.0 0.00 0.01 0.00 87 1013.8
20260901194547 53 207 0.0 2.0 0.00 0.01 0.00 87 1013.9
20260901194046 53 207 0.0 2.0 0.00 0.01 0.00 87 1013.8
20260901193548 53 202 1.0 3.0 0.00 0.01 0.00 87 1013.7
20260901192548 54 205 0.0 2.0 0.00 0.01 0.00 87 1013.7
20260901192049 54 228 0.0 1.0 0.00 0.01 0.00 87 1013.7
20260901191555 54 229 0.0 1.0 0.00 0.01 0.00 87 1013.7
20260901191046 54 229 0.0 0.0 0.00 0.01 0.00 87 1013.6
20260901190546 54 229 0.0 2.0 0.00 0.01 0.00 86 1013.5
20260901190111 54 229 0.0 2.0 0.00 0.01 0.00 86 1013.5
20260901185545 54 229 0.0 2.0 0.00 0.01 0.00 86 1013.5
20260901185044 54 229 0.0 3.0 0.00 0.01 0.00 86 1013.3
20260901184543 54 243 0.0 3.0 0.00 0.01 0.00 86 1013.1
20260901184041 54 243 1.0 5.0 0.00 0.01 0.00 85 1013.0
20260901183540 54 167 1.0 7.0 0.00 0.01 0.00 85 1013.0
20260901182536 55 201 2.0 8.0 0.00 0.01 0.00 84 1012.9
20260901182036 55 202 1.0 8.0 0.00 0.01 0.00 83 1012.8
20260901181538 55 202 2.0 8.0 0.00 0.01 0.00 83 1012.8
20260901181033 55 224 1.0 6.0 0.00 0.01 0.00 83 1012.8
20260901180536 56 177 3.0 6.0 0.00 0.01 0.00 82 1012.7
20260901180032 56 223 2.0 5.0 0.00 0.01 0.00 82 1012.6
20260901175531 56 238 1.0 5.0 0.00 0.01 0.00 82 1012.7
20260901175029 57 207 1.0 7.0 0.00 0.01 0.00 81 1012.7
20260901174534 57 198 3.0 7.0 0.00 0.01 0.00 81 1012.6
20260901174030 57 206 2.0 7.0 0.00 0.01 0.00 80 1012.6
20260901173526 58 195 3.0 9.0 0.00 0.01 0.00 79 1012.6
20260901172529 58 170 3.0 10.0 0.00 0.01 0.00 79 1012.5
20260901172028 59 191 4.0 10.0 0.00 0.01 0.00 79 1012.4
20260901171527 59 188 0.0 3.0 0.00 0.01 0.00 79 1012.3
20260901171027 59 294 0.0 2.0 0.00 0.01 0.00 79 1012.3
20260901170527 59 294 0.0 2.0 0.00 0.01 0.00 79 1012.2
20260901170027 59 294 0.0 3.0 0.00 0.01 0.00 79 1012.2
20260901165531 59 285 0.0 3.0 0.00 0.01 0.00 79 1012.2
20260901165025 59 284 0.0 4.0 0.00 0.01 0.00 79 1012.3
20260901164526 59 284 1.0 4.0 0.00 0.01 0.00 79 1012.3
20260901164024 59 290 1.0 5.0 0.00 0.01 0.00 78 1012.3
20260901163525 59 289 2.0 6.0 0.00 0.01 0.00 78 1012.3
20260901162524 59 326 1.0 5.0 0.00 0.01 0.00 78 1012.2
20260901162023 59 317 0.0 5.0 0.00 0.01 0.00 78 1012.3
20260901161523 59 285 1.0 5.0 0.00 0.01 0.00 78 1012.4
20260901161023 59 302 2.0 7.0 0.00 0.01 0.00 78 1012.4
20260901160522 59 294 2.0 6.0 0.00 0.01 0.00 78 1012.4
20260901160022 59 311 1.0 6.0 0.00 0.01 0.00 78 1012.4
20260901155522 59 338 2.0 5.0 0.00 0.01 0.00 77 1012.5
20260901155022 59 341 1.0 3.0 0.00 0.01 0.00 77 1012.5
20260901154533 59 304 0.0 4.0 0.00 0.01 0.00 76 1012.4
20260901154021 59 337 0.0 4.0 0.00 0.01 0.00 76 1012.4
20260901153523 59 306 0.0 6.0 0.00 0.01 0.00 75 1012.4
20260901152518 59 288 0.0 3.0 0.00 0.01 0.00 75 1012.4
20260901152017 59 270 1.0 3.0 0.00 0.01 0.00 75 1012.5
20260901151517 59 274 1.0 3.0 0.00 0.01 0.00 75 1012.5
20260901151016 59 285 1.0 8.0 0.00 0.01 0.00 75 1012.4
20260901150515 59 339 2.0 8.0 0.00 0.01 0.00 75 1012.3
20260901150015 59 300 2.0 8.0 0.00 0.01 0.00 75 1012.3
20260901145515 59 339 3.0 9.0 0.00 0.01 0.00 75 1012.4
20260901145013 59 294 2.0 9.0 0.00 0.01 0.00 74 1012.3
20260901144519 59 289 4.0 10.0 0.00 0.01 0.00 75 1012.4
20260901144016 60 297 3.0 11.0 0.00 0.01 0.00 74 1012.3
20260901143512 60 332 1.0 10.0 0.00 0.01 0.00 74 1012.3
20260901142515 60 294 4.0 10.0 0.00 0.01 0.00 74 1012.4
20260901142011 60 315 2.0 8.0 0.00 0.01 0.00 73 1012.3
20260901141515 60 304 3.0 10.0 0.00 0.01 0.00 73 1012.3
20260901141009 60 290 2.0 10.0 0.00 0.01 0.00 73 1012.3
20260901140508 60 315 3.0 8.0 0.00 0.01 0.00 72 1012.4
20260901140008 60 307 2.0 5.0 0.00 0.01 0.01 72 1012.4
20260901135512 60 268 3.0 8.0 0.00 0.01 0.01 72 1012.5
20260901135008 60 284 3.0 9.0 0.00 0.01 0.01 72 1012.5
20260901134508 60 296 2.0 10.0 0.00 0.01 0.01 72 1012.4
20260901134007 61 314 2.0 9.0 0.00 0.01 0.01 72 1012.5
20260901133507 61 316 2.0 8.0 0.00 0.01 0.01 72 1012.5
20260901132511 61 328 2.0 9.0 0.00 0.01 0.01 71 1012.5
20260901132014 61 307 2.0 9.0 0.00 0.01 0.01 71 1012.6
20260901131511 61 5 2.0 12.0 0.00 0.01 0.01 71 1012.6
20260901131011 61 273 3.0 12.0 0.00 0.01 0.01 71 1012.6
20260901130511 61 308 4.0 14.0 0.00 0.01 0.01 71 1012.8
20260901130015 61 311 5.0 14.0 0.00 0.01 0.01 70 1012.7
20260901125513 61 295 4.0 11.0 0.00 0.01 0.01 70 1012.7
20260901125012 61 293 5.0 10.0 0.00 0.01 0.01 70 1012.7
20260901124511 61 302 2.0 11.0 0.00 0.01 0.01 70 1012.6
20260901124011 61 292 3.0 14.0 0.00 0.01 0.01 70 1012.5
20260901123510 62 325 3.0 12.0 0.00 0.01 0.01 70 1012.3
20260901122506 62 335 5.0 12.0 0.00 0.01 0.01 69 1012.6
20260901122003 62 339 4.0 20.0 0.00 0.01 0.01 69 1012.7
20260901121506 62 335 10.0 20.0 0.00 0.01 0.01 69 1012.7
20260901121005 62 331 7.0 19.0 0.00 0.01 0.01 68 1012.6
20260901120504 62 274 7.0 19.0 0.00 0.01 0.01 68 1012.6
20260901120004 62 296 3.0 13.0 0.00 0.01 0.01 67 1012.6
20260901115505 62 327 5.0 13.0 0.00 0.01 0.01 67 1012.5
20260901115003 62 281 4.0 22.0 0.00 0.01 0.01 67 1012.5
20260901114503 63 282 8.0 22.0 0.00 0.01 0.01 66 1012.6
20260901114002 63 304 7.0 16.0 0.00 0.01 0.01 66 1012.4
20260901113504 63 306 8.0 15.0 0.00 0.01 0.01 66 1012.4
20260901112504 63 287 6.0 18.0 0.00 0.01 0.01 65 1012.4
20260901112003 63 321 7.0 18.0 0.00 0.01 0.01 65 1012.4
20260901111503 62 22 6.0 17.0 0.00 0.01 0.01 65 1012.4
20260901111003 62 351 9.0 17.0 0.00 0.01 0.01 65 1012.2
20260901110502 62 292 6.0 14.0 0.00 0.01 0.01 66 1012.3
20260901110006 62 323 6.0 22.0 0.00 0.01 0.01 66 1012.3
20260901105503 62 321 9.0 23.0 0.00 0.01 0.01 66 1012.3
20260901105004 62 298 7.0 16.0 0.00 0.01 0.01 66 1012.3
20260901104505 62 330 7.0 16.0 0.00 0.01 0.01 67 1012.2
20260901104004 62 323 6.0 16.0 0.00 0.01 0.01 67 1012.2
20260901103503 62 308 9.0 14.0 0.00 0.01 0.01 68 1012.1
20260901102503 62 346 5.0 12.0 0.00 0.01 0.01 69 1012.2
20260901102003 62 317 4.0 12.0 0.00 0.01 0.01 69 1012.3
20260901101504 62 318 5.0 12.0 0.00 0.01 0.01 70 1012.3
20260901101002 62 360 5.0 12.0 0.00 0.01 0.01 70 1012.1
20260901100502 62 330 4.0 10.0 0.00 0.01 0.01 70 1012.2
20260901100001 62 314 5.0 11.0 0.00 0.01 0.01 69 1012.0
20260901095501 63 313 5.0 15.0 0.00 0.01 0.01 69 1012.4
20260901095001 63 340 5.0 15.0 0.00 0.01 0.01 68 1012.5
20260901094503 63 13 6.0 14.0 0.00 0.01 0.01 67 1012.4
20260901094100 63 340 5.0 12.0 0.00 0.01 0.01 66 1012.3
20260901093600 63 338 5.0 12.0 0.00 0.01 0.01 64 1012.2
20260901092504 64 16 2.0 11.0 0.00 0.01 0.01 64 1012.2
20260901092001 64 333 5.0 11.0 0.00 0.01 0.01 64 1012.4
20260901091500 64 322 5.0 10.0 0.00 0.01 0.01 64 1012.7
20260901091101 65 291 2.0 6.0 0.00 0.01 0.01 64 1012.7
20260901090605 65 292 3.0 9.0 0.00 0.01 0.01 63 1012.8
20260901090500 65 321 2.0 9.0 0.00 0.01 0.01 63 1012.8
20260901090106 65 292 3.0 9.0 0.00 0.01 0.01 62 1012.9
20260901085600 65 291 4.0 11.0 0.00 0.01 0.01 61 1013.1
20260901085103 66 319 5.0 11.0 0.00 0.01 0.01 59 1013.0
20260901084605 66 282 2.0 11.0 0.00 0.01 0.01 59 1012.8
20260901084100 66 324 4.0 12.0 0.00 0.01 0.01 56 1012.7
20260901083559 66 331 4.0 10.0 0.00 0.01 0.01 54 1012.7
20260901082559 66 15 3.0 6.0 0.00 0.01 0.01 54 1012.5
20260901082058 66 5 1.0 8.0 0.00 0.01 0.01 54 1012.5
20260901081558 67 15 1.0 8.0 0.00 0.01 0.01 54 1012.6
20260901081058 67 346 2.0 9.0 0.00 0.01 0.01 54 1012.6
20260901080603 67 360 4.0 10.0 0.00 0.01 0.01 54 1012.6
20260901080112 67 9 3.0 8.0 0.00 0.01 0.01 53 1012.9
20260901075559 67 320 3.0 9.0 0.00 0.01 0.01 53 1012.9
20260901075059 67 338 2.0 9.0 0.00 0.01 0.01 53 1013.0
20260901074558 67 355 4.0 12.0 0.00 0.01 0.01 52 1013.0
20260901074101 67 329 6.0 12.0 0.00 0.01 0.01 52 1013.1
20260901073558 67 329 6.0 14.0 0.00 0.01 0.01 52 1013.1
20260901072601 68 345 6.0 14.0 0.00 0.01 0.01 51 1013.2
20260901072105 68 321 5.0 12.0 0.00 0.01 0.01 51 1013.3
20260901071604 68 331 4.0 13.0 0.00 0.01 0.01 51 1013.2
20260901071100 68 307 7.0 13.0 0.00 0.01 0.01 51 1013.3
20260901070600 68 283 5.0 13.0 0.00 0.01 0.01 50 1013.4
20260901070159 68 318 6.0 13.0 0.00 0.01 0.01 50 1013.4
20260901065602 68 309 5.0 13.0 0.00 0.01 0.01 50 1013.4
20260901065059 68 326 2.0 12.0 0.00 0.01 0.01 50 1013.4
20260901064611 68 12 5.0 12.0 0.00 0.01 0.01 50 1013.3
20260901064059 68 273 4.0 16.0 0.00 0.01 0.01 50 1013.3
20260901063559 68 332 6.0 16.0 0.00 0.01 0.01 49 1013.3
20260901062558 68 40 7.0 14.0 0.00 0.01 0.01 48 1013.3
20260901062058 69 329 5.0 15.0 0.00 0.01 0.01 48 1013.2
20260901061601 69 355 8.0 15.0 0.00 0.01 0.01 47 1013.2
20260901061058 69 284 7.0 19.0 0.00 0.01 0.01 47 1013.3
20260901060602 69 344 11.0 17.0 0.00 0.01 0.01 46 1013.2
20260901060058 69 281 7.0 22.0 0.00 0.01 0.01 46 1013.1
20260901055558 69 316 8.0 22.0 0.00 0.01 0.01 47 1013.5
20260901055058 69 333 4.0 9.0 0.00 0.01 0.01 47 1013.4
20260901054558 69 297 3.0 11.0 0.00 0.01 0.01 47 1013.3
20260901054058 69 321 6.0 11.0 0.00 0.01 0.01 47 1013.3
20260901053557 69 258 3.0 12.0 0.00 0.01 0.01 47 1013.4
20260901052554 69 335 3.0 9.0 0.00 0.01 0.01 46 1012.9
20260901052054 69 327 5.0 12.0 0.00 0.01 0.01 46 1013.0
20260901051558 70 336 6.0 17.0 0.00 0.01 0.01 46 1012.9
20260901051054 70 256 10.0 17.0 0.00 0.01 0.01 45 1012.8
20260901050554 70 329 7.0 15.0 0.00 0.01 0.01 45 1012.7
20260901050054 70 296 4.0 15.0 0.00 0.01 0.01 45 1012.7
20260901045554 70 332 7.0 17.0 0.00 0.01 0.01 44 1012.6
20260901045054 71 313 10.0 19.0 0.00 0.01 0.01 44 1012.5
20260901044556 71 17 9.0 20.0 0.00 0.01 0.01 43 1012.5
20260901044053 71 5 11.0 20.0 0.00 0.01 0.01 43 1012.6
20260901043553 72 42 7.0 20.0 0.00 0.01 0.01 43 1012.6
20260901042555 72 306 8.0 21.0 0.00 0.01 0.01 42 1012.8
20260901042053 72 5 9.0 16.0 0.00 0.01 0.01 43 1013.0
20260901041549 72 335 7.0 20.0 0.00 0.01 0.01 43 1013.1
20260901041048 72 301 12.0 20.0 0.00 0.01 0.01 42 1013.4
20260901040547 72 279 8.0 18.0 0.00 0.01 0.01 42 1013.3
20260901040047 72 325 10.0 19.0 0.00 0.01 0.01 42 1013.6
20260901035546 72 322 11.0 19.0 0.00 0.01 0.01 42 1013.7
20260901035048 72 9 5.0 16.0 0.00 0.01 0.01 43 1013.6
20260901034549 71 339 7.0 22.0 0.00 0.01 0.01 42 1013.8
20260901034042 71 284 12.0 22.0 0.00 0.01 0.01 42 1014.0
20260901033541 71 325 10.0 21.0 0.00 0.01 0.01 41 1014.1
20260901032545 71 276 11.0 20.0 0.00 0.01 0.01 40 1014.2
20260901032043 71 302 11.0 24.0 0.00 0.01 0.01 41 1014.3
20260901031548 71 51 10.0 27.0 0.00 0.01 0.01 41 1014.3
20260901031042 71 326 11.0 27.0 0.00 0.01 0.01 41 1014.3
20260901030542 71 292 12.0 27.0 0.00 0.01 0.01 41 1014.4
20260901030042 71 286 12.0 21.0 0.00 0.01 0.01 41 1014.4
20260901025540 71 329 9.0 22.0 0.00 0.01 0.01 42 1014.5
20260901025039 71 346 10.0 23.0 0.00 0.01 0.01 43 1014.4
20260901024538 70 275 10.0 27.0 0.00 0.01 0.01 42 1014.6
20260901024040 70 298 14.0 28.0 0.00 0.01 0.01 43 1014.5
20260901023535 70 313 10.0 28.0 0.00 0.01 0.01 45 1014.6
20260901022536 69 328 14.0 27.0 0.00 0.01 0.01 45 1015.0
20260901022035 69 282 15.0 29.0 0.01 0.01 0.01 44 1015.2
20260901021547 69 322 15.0 34.0 0.01 0.01 0.01 44 1015.2
20260901021035 69 336 20.0 34.0 0.01 0.01 0.01 44 1015.3
20260901020534 69 317 14.0 29.0 0.01 0.01 0.01 45 1015.3
20260901020032 69 343 14.0 29.0 0.01 0.01 0.01 45 1015.6
20260901015532 69 355 15.0 29.0 0.01 0.01 0.01 45 1015.6
20260901015035 69 303 11.0 33.0 0.01 0.01 0.01 46 1015.7
20260901014531 69 360 19.0 39.0 0.01 0.01 0.01 45 1015.8
20260901014030 69 327 18.0 39.0 0.01 0.01 0.01 45 1015.6
20260901013529 68 332 16.0 28.0 0.01 0.01 0.01 45 1015.8
20260901012533 68 306 16.0 27.0 0.01 0.01 0.01 46 1015.7
20260901012036 68 294 14.0 26.0 0.00 0.00 0.00 46 1015.6
20260901011531 68 325 13.0 26.0 0.00 0.00 0.00 46 1015.7
20260901011029 68 331 10.0 29.0 0.00 0.00 0.00 47 1015.7
20260901010530 68 317 11.0 29.0 0.00 0.00 0.00 47 1015.7
20260901010041 67 292 10.0 29.0 0.00 0.00 0.00 47 1015.6
20260901005526 67 20 11.0 32.0 0.00 0.00 0.00 46 1015.8
20260901005024 67 15 17.0 32.0 0.00 0.00 0.00 45 1016.1
20260901004523 67 339 15.0 27.0 0.00 0.00 0.00 44 1016.1
20260901004022 67 300 12.0 21.0 0.00 0.00 0.00 45 1016.2
20260901003521 67 336 12.0 21.0 0.00 0.00 0.00 46 1016.2
20260901002515 67 320 4.0 23.0 0.00 0.00 0.00 49 1016.5
20260901002015 67 9 10.0 23.0 0.00 0.00 0.00 48 1016.6
20260901001513 66 302 6.0 15.0 0.00 0.00 0.00 50 1017.0
20260901001012 66 300 6.0 20.0 0.00 0.00 0.00 51 1017.1
20260901000510 66 9 9.0 20.0 0.00 0.00 0.00 51 1017.3
20260901000009 65 329 8.0 25.0 0.00 0.00 0.00 52 1017.5
20260831235510 65 292 9.0 17.0 0.00 0.00 0.00 53 1017.7
20260831235007 65 331 4.0 19.0 0.00 0.00 0.00 56 1017.7
20260831234505 64 312 10.0 19.0 0.00 0.00 0.00 57 1017.7
20260831234004 63 306 2.0 10.0 0.00 0.00 0.00 61 1017.9
20260831233502 62 300 6.0 11.0 0.00 0.00 0.00 64 1017.9
20260831232559 60 16 4.0 13.0 0.00 0.00 0.00 76 1018.1
20260831232058 59 350 4.0 13.0 0.00 0.00 0.00 83 1018.2
20260831231610 58 21 3.0 10.0 0.00 0.00 0.00 89 1018.6
20260831231058 57 327 2.0 5.0 0.00 0.00 0.00 92 1018.7
20260831230554 56 53 0.0 3.0 0.00 0.00 0.00 93 1018.9
20260831230053 55 55 0.0 4.0 0.00 0.00 0.00 94 1019.1
20260831225550 54 141 0.0 4.0 0.00 0.00 0.00 95 1019.1
20260831225049 54 142 0.0 3.0 0.00 0.00 0.00 95 1019.3
20260831224548 53 59 1.0 3.0 0.00 0.00 0.00 95 1019.4
20260831224046 51 211 1.0 3.0 0.00 0.00 0.00 96 1019.4
20260831223546 50 340 0.0 2.0 0.00 0.00 0.00 95 1019.5
20260831222549 49 340 0.0 2.0 0.00 0.00 0.00 95 1019.6
20260831222048 48 340 0.0 2.0 0.00 0.00 0.00 95 1019.7
20260831221546 47 340 0.0 2.0 0.00 0.00 0.00 94 1019.7
20260831221045 46 340 0.0 2.0 0.00 0.00 0.00 94 1019.7
20260831220543 45 340 0.0 1.0 0.00 0.00 0.00 93 1019.9
20260831220042 45 341 0.0 2.0 0.00 0.00 0.00 93 1019.9
20260831215540 44 207 0.0 2.0 0.00 0.00 0.00 93 1020.0
20260831215039 43 240 0.0 1.0 0.00 0.00 0.00 93 1020.0
20260831214537 43 240 0.0 2.0 0.00 0.00 0.00 93 1020.1
20260831214038 42 242 0.0 2.0 0.00 0.00 0.00 92 1020.2
20260831213535 42 242 0.0 2.0 0.00 0.00 0.00 92 1020.3
20260831212532 40 265 0.0 3.0 0.00 0.00 0.00 91 1020.3
20260831212030 40 262 0.0 2.0 0.00 0.00 0.00 91 1020.2
20260831211529 40 263 0.0 2.0 0.00 0.00 0.00 90 1020.2
20260831211030 40 262 0.0 2.0 0.00 0.00 0.00 90 1020.3
20260831210531 40 262 0.0 2.0 0.00 0.00 0.00 90 1020.2
20260831210026 39 222 0.0 3.0 0.00 0.00 0.00 90 1020.3
20260831205527 39 222 0.0 3.0 0.00 0.00 0.00 90 1020.3